Location: Newark
(48.1500°N, 2.9667°W)
Time: 07:23:13
(UTC+00:00)

Transit 2A - Pass Details

Date: 31 January 2020
Orbit: 600 x 959 km, 66.7° (Epoch: 18 February)

Event Time Altitude Azimuth Distance (km) Brightness Sun altitude
Rises 21:18:51 0° 282° (WNW) 2,850 9.8 -41.3°
Enters shadow 21:21:23 - 302° (WNW) 2,176 9.0 -41.7°
Reaches altitude 10° 21:22:43 10° 317° (NW) 1,960 - -41.9°
Maximum altitude 21:24:08 11° 336° (NNW) 1,882 - -42.1°
Drops below altitude 10° 21:25:35 10° 356° (N) 1,986 - -42.3°
Sets 21:29:36 0° 30° (NNE) 2,951 - -42.9°
